TimeCDT,TemperatureF,Dew PointF,Humidity,Sea Level PressureIn,VisibilityMPH,Wind Direction,Wind SpeedMPH,Gust SpeedMPH,PrecipitationIn,Events,Conditions,WindDirDegrees,DateUTC
12:45 AM,62,29,18,29.77,6,SE,2.2,,,,,140,2012-10-06 05:45:00
12:45 AM,50.0,37.4,62,30.33,7.0,ENE,4.6,-,N/A,,Clear,60,2012-10-06 05:45:00
1:45 AM,46.4,39.2,76,30.33,7.0,East,6.9,-,N/A,,Clear,80,2012-10-06 06:45:00
2:50 AM,46.4,39.2,76,30.32,7.0,ENE,6.9,-,N/A,,Clear,60,2012-10-06 07:50:00
3:40 AM,58,31,23,29.86,6,East,2.2,,,,,90,2012-10-06 08:40:00
3:50 AM,44.6,39.2,81,30.32,7.0,ENE,4.6,-,N/A,,Clear,60,2012-10-06 08:50:00
4:48 AM,41.0,39.2,93,30.30,7.0,Calm,Calm,-,N/A,,Clear,0,2012-10-06 09:48:00
5:45 AM,41.0,39.2,93,30.30,7.0,Calm,Calm,-,N/A,,Clear,0,2012-10-06 10:45:00
6:40 AM,51,39,53,29.88,6,North,2.2,,,,,0,2012-10-06 11:40:00
6:45 AM,39.2,35.6,87,30.30,7.0,Calm,Calm,-,N/A,,Clear,0,2012-10-06 11:45:00
7:45 AM,37.4,33.8,87,30.32,7.0,Calm,Calm,-,N/A,,Clear,0,2012-10-06 12:45:00
8:45 AM,51.8,44.6,76,30.30,10.0,Calm,Calm,-,N/A,,Clear,0,2012-10-06 13:45:00
9:45 AM,59.0,44.6,59,30.30,7.0,Calm,Calm,-,N/A,,Clear,0,2012-10-06 14:45:00
9:50 AM,62,43,38,29.99,6,North,2.2,,,,,0,2012-10-06 14:50:00
10:45 AM,66.2,46.4,49,30.32,7.0,Calm,Calm,-,N/A,,Clear,0,2012-10-06 15:45:00
11:45 AM,71.6,42.8,35,30.32,7.0,East,5.8,-,N/A,,Clear,80,2012-10-06 16:45:00
12:40 PM,77,41,17,29.90,16,East,13.4,,,,,90,2012-10-06 17:40:00
12:45 PM,72,57,50,,14,ESE,8.9,,,,,110,2012-10-06 17:45:00
12:45 PM,75.2,44.6,34,30.26,7.0,SE,5.8,-,N/A,,Clear,140,2012-10-06 17:45:00
1:45 PM,75.2,39.2,27,30.26,7.0,SSE,5.8,-,N/A,,Clear,150,2012-10-06 18:45:00
2:45 PM,78.8,41.0,26,30.22,10.0,East,11.5,-,N/A,,Clear,80,2012-10-06 19:45:00
3:40 PM,85,34,8,29.72,16,NE,11.2,,,,,50,2012-10-06 20:40:00
3:45 PM,80.6,37.4,21,30.19,10.0,East,8.1,-,N/A,,Clear,80,2012-10-06 20:45:00
4:45 PM,78.8,37.4,23,30.16,10.0,ENE,9.2,-,N/A,,Clear,70,2012-10-06 21:45:00
5:47 PM,78.8,37.4,23,30.15,10.0,ENE,8.1,-,N/A,,Clear,60,2012-10-06 22:47:00
6:47 PM,75.2,39.2,27,30.15,10.0,NE,11.5,-,N/A,,Clear,40,2012-10-06 23:47:00
6:50 PM,80,37,12,29.60,12,East,6.7,,,,,90,2012-10-06 23:50:00
7:50 PM,71.6,39.2,31,30.15,8.0,NNE,13.8,-,N/A,,Clear,20,2012-10-07 00:50:00
8:45 PM,68.0,39.2,35,30.17,8.0,NNE,11.5,-,N/A,,Clear,30,2012-10-07 01:45:00
9:45 PM,66.2,42.8,43,30.24,8.0,NE,6.9,-,N/A,,Clear,50,2012-10-07 02:45:00
9:55 PM,,,,29.63,12,Calm,Calm,,,,,10,2012-10-07 02:55:00
10:45 PM,60.8,46.4,59,30.24,8.0,East,9.2,-,N/A,,Clear,100,2012-10-07 03:45:00
11:45 PM,55.4,46.4,72,30.26,8.0,East,6.9,-,N/A,,Clear,100,2012-10-07 04:45:00